[[{"header":{"parameterUnit":"m.s-1","parameterCategory":1,"la1":30.2991,"la2":30.254,"lo1":-89.0895,"lo2":-89.0444,"dy":0.0017,"dx":0.0017,"nx":28,"ny":28,"refTime":"2024-02-03T09:00:00:Z","depth":0,"parameterNumber":2,"parameterNumberName":"U-component_of_WINDS"},"data":[0,0,0,0,0,0,0,0,0,0,0,0,0,0,0,0,0,0,0,0,0,0,0,0,0,0,0,0,0,0,0,0,0,0,0,0,0,0,0,0,0,0,0,0,0,0,0,0,0,0,0,0,0,0,0,0,0,0,-3.0258,-3.0257,0,-3.0198,-3.0198,-3.0197,-3.0035,-3.0031,-3.0028,-3.0025,-2.9968,-2.997,-2.9972,0,0,0,0,0,0,0,0,0,0,0,0,0,-3.0237,-3.0238,-3.0258,-3.0257,-3.0256,-3.0198,-3.0198,-3.0197,-3.0036,-3.0031,-3.0027,-3.0023,-2.9968,-2.997,-2.9972,0,0,0,0,0,0,0,0,0,0,0,0,0,-3.0219,-3.0239,-3.0258,-3.0169,-3.016,-3.0199,-3.0198,-3.0197,-3.0036,-3.0031,-3.0026,-3.0021,-2.9967,-2.997,-2.9972,-3.0094,0,0,-2.998,-2.9982,0,0,0,0,0,0,0,0,-3.022,-3.022,-3.0183,-3.0175,-3.0166,-3.0119,-3.0169,-3.0162,-3.0038,-3.0084,-3.0025,-3.0019,-3.0023,-3.0021,-3.0021,-3.0091,-3.0089,-2.9981,-2.9982,-2.9983,-2.9984,0,0,0,0,0,0,0,-3.0222,-3.0221,-3.0234,-3.0182,-3.0172,-3.0133,-3.0125,-3.0167,-3.0084,-3.0079,-3.0067,-3.0062,-3.0017,-3.0019,-3.0019,-3.0088,-2.9981,-2.9983,-2.9985,-2.9986,-3.0256,-3.0261,0,0,0,0,0,0,-3.0235,-3.0224,-3.0236,-3.0233,-3.018,-3.0138,-3.0129,-3.0139,-3.0083,-3.0069,-3.0067,-3.0055,-3.0017,-3.0016,-3.0016,-3.0156,-2.9983,-2.9986,-2.9987,-3.0251,-3.0257,-3.0263,0,0,0,0,0,0,-3.0235,-3.0238,-3.0239,-3.0225,-3.0222,-3.0144,-3.0157,-3.0141,-3.0142,-3.0073,-3.0058,-3.0084,-3.0013,-3.0012,-3.0076,-3.0151,-2.9987,-2.9989,-3.0244,-3.0253,-3.026,-3.0436,0,0,0,0,0,0,-3.0235,-3.0239,-3.0283,-3.0227,-3.0223,-3.0299,-3.0162,-3.0143,-3.0147,-3.013,-3.0085,-3.0072,-3.0009,-3.0073,-3.0078,-3.0152,-2.9992,-3.0237,-3.0248,-3.0258,-3.0423,-3.0449,-3.0471,0,0,0,0,0,-3.0235,-3.0335,-3.0286,-3.0288,-3.0277,-3.0303,-3.0301,-3.0224,-3.0153,-3.0198,-3.0154,-3.0074,-3.0142,-3.008,-3.0085,-3.0161,-3.0232,-3.0245,-3.0257,-3.0412,-3.0444,-3.0471,0,0,0,0,0,0,-3.0403,-3.0326,-3.0271,-3.0355,-3.0337,-3.0276,-3.0329,-3.026,-3.0263,-3.0248,-3.0154,-3.0145,-3.0222,-3.0197,-3.013,-3.0277,-3.0174,-3.0188,-3.029,-3.032,-3.0344,-3.0349,-2.9994,0,0,0,0,0,-3.045,-3.0476,-3.0408,-3.049,-3.0483,-3.0409,-3.0417,-3.0359,-3.0337,-3.0329,-3.0289,-3.0272,-3.0289,-3.0303,-3.0315,-3.0418,-3.0407,-3.0473,-3.0497,-3.0517,-3.0531,-3.0586,-3.0615,-3.0305,-3.0305,-3.0304,0,0,-3.0548,-3.0509,-3.0531,-3.0523,-3.0501,-3.0532,-3.0403,-3.0441,-3.0464,-3.0335,-3.0392,-3.0363,-3.0337,-3.0422,-3.0457,-3.0404,-3.0614,-3.0533,-3.055,-3.0553,-3.0602,-3.0631,-3.0657,-3.0313,-3.0312,-3.031,0,0,-3.0741,-3.0714,-3.0779,-3.076,-3.0729,-3.0679,-3.0695,-3.0644,-3.062,-3.0675,-3.058,-3.0606,-3.0638,-3.0624,-3.0621,-3.0811,-3.0738,-3.0817,-3.0945,-3.0999,-3.1024,-3.1045,-3.1114,-3.114,-3.0831,-3.0832,-3.0832,0,-3.0867,-3.0908,-3.0822,-3.0866,-3.0866,-3.0749,-3.0816,-3.0803,-3.0779,-3.0782,-3.0722,-3.076,-3.0735,-3.0815,-3.0861,-3.0862,-3.0879,-3.0823,-3.1027,-3.1047,-3.1066,-3.1131,-3.1157,-3.0841,-3.084,-3.0839,-3.0838,0,-3.1065,-3.1095,-3.1152,-3.113,-3.1136,-3.1192,-3.1116,-3.1133,-3.1075,-3.1032,-3.1091,-3.1056,-3.106,-3.1075,-3.1019,-3.1148,-3.1116,-3.1043,-3.0938,-3.1107,-3.1167,-3.1191,-3.0856,-3.0852,-3.0849,-3.0847,0,0,-3.1363,-3.1293,-3.1315,-3.1305,-3.1262,-3.1285,-3.1336,-3.1338,-3.1356,-3.1343,-3.1385,-3.1414,-3.1347,-3.1344,-3.1286,-3.1333,-3.1488,-3.1254,-3.1252,-3.1301,-3.163,-3.1687,-3.1717,-3.1439,-3.1443,-3.1447,-3.1633,0,-3.1547,-3.1628,-3.1553,-3.165,-3.1678,-3.1569,-3.1613,-3.1594,-3.1555,-3.1574,-3.1531,-3.1555,-3.1463,-3.1461,-3.1503,-3.146,-3.1553,-3.1446,-3.1479,-3.1481,-3.1491,-3.1747,-3.1807,-3.1984,-3.1655,-3.1659,-3.1662,0,-3.1772,-3.1769,-3.1869,-3.1821,-3.183,-3.1872,-3.1868,-3.1888,-3.1864,-3.1832,-3.183,-3.1758,-3.1807,-3.1704,-3.1771,-3.17,-3.1709,-3.169,-3.1695,-3.1697,-3.1583,-3.1758,-3.2038,-3.2066,-3.1698,-3.1695,-3.1692,0,-3.1982,-3.2003,-3.2065,-3.2059,-3.2005,-3.2037,-3.2016,-3.1986,-3.1993,-3.1991,-3.1994,-3.1999,-3.2002,-3.2007,-3.194,-3.1871,-3.2017,-3.1907,-3.1994,-3.1996,-3.2031,-3.203,-3.2319,-3.2035,-3.2034,-3.2034,-3.2033,0,-3.2196,-3.2262,-3.2159,-3.2198,-3.2269,-3.2182,-3.2256,-3.2224,-3.2199,-3.2231,-3.2136,-3.2169,-3.2077,-3.2101,-3.2048,-3.2113,-3.2115,-3.2092,-3.2078,-3.2102,-3.2105,-3.2107,-3.2094,-3.2041,-3.2039,-3.2038,-3.2036,0,-3.2443,-3.2376,-3.2438,-3.2381,-3.2368,-3.2424,-3.2376,-3.241,-3.2365,-3.2407,-3.2412,-3.2342,-3.2365,-3.2298,-3.2311,-3.2276,-3.237,-3.2335,-3.2378,-3.2368,-3.246,-3.2453,-3.2762,-3.2799,-3.249,-3.2493,-3.2495,0,-3.2585,-3.2633,-3.2581,-3.2595,-3.2579,-3.2603,-3.2609,-3.2526,-3.2536,-3.2513,-3.2552,-3.2566,-3.2574,-3.2616,-3.2568,-3.2577,-3.2543,-3.265,-3.2544,-3.2567,-3.2547,-3.2545,-3.2551,-3.2673,-3.2677,-3.268,-3.2682,0,-3.2844,-3.2809,-3.282,-3.2821,-3.2831,-3.2828,-3.2818,-3.2836,-3.2747,-3.2764,-3.2786,-3.2792,-3.2804,-3.2821,-3.282,-3.28,-3.2729,-3.2716,-3.2737,-3.2763,-3.2787,-3.2777,-3.2441,-3.271,-3.2707,-3.2705,-3.2704,-3.2703,-3.3043,-3.3082,-3.3051,-3.3068,-3.3052,-3.3046,-3.3076,-3.3034,-3.305,-3.3053,-3.3003,-3.3036,-3.3012,-3.3003,-3.2991,-3.3017,-3.2967,-3.2997,-3.3005,-3.3014,-3.303,-3.2781,-3.3016,-3.3015,-3.3014,-3.3014,-3.3013,0,-3.3299,-3.3274,-3.329,-3.328,-3.3294,-3.3222,-3.3208,-3.3225,-3.3254,-3.3237,-3.3246,-3.3273,-3.3289,-3.3242,-3.3251,-3.3281,-3.3248,-3.3287,-3.3284,-3.3281,-3.3073,-3.3055,-3.3313,-3.3313,-3.3313,-3.3313,-3.3313,-3.3313,-3.3434,-3.3495,-3.3457,-3.351,-3.3484,-3.3514,-3.3513,-3.3508,-3.3493,-3.3526,-3.3539,-3.3507,-3.3479,-3.3486,-3.3498,-3.3484,-3.3493,-3.3543,-3.3519,-3.3325,-3.3296,-3.3268,-3.325,-3.3546,-3.3546,-3.3725,-3.3726,-3.3728]},{"header":{"parameterUnit":"m.s-1","parameterCategory":1,"la1":30.2991,"la2":30.254,"lo1":-89.0895,"lo2":-89.0444,"dy":0.0017,"dx":0.0017,"nx":28,"ny":28,"refTime":"2024-02-03T09:00:00:Z","depth":0,"parameterNumber":3,"parameterNumberName":"V-component_of_WINDS"},"data":[0,0,0,0,0,0,0,0,0,0,0,0,0,0,0,0,0,0,0,0,0,0,0,0,0,0,0,0,0,0,0,0,0,0,0,0,0,0,0,0,0,0,0,0,0,0,0,0,0,0,0,0,0,0,0,0,0,0,-0.9069,-0.9069,0,-0.9078,-0.9078,-0.9079,-0.9058,-0.9057,-0.9056,-0.9056,-0.9066,-0.9067,-0.9068,0,0,0,0,0,0,0,0,0,0,0,0,0,-0.9034,-0.9035,-0.9069,-0.9069,-0.907,-0.9078,-0.9078,-0.9079,-0.9058,-0.9057,-0.9056,-0.9055,-0.9065,-0.9067,-0.9068,0,0,0,0,0,0,0,0,0,0,0,0,0,-0.9047,-0.9035,-0.9069,-0.906,-0.9059,-0.9078,-0.9078,-0.9079,-0.9058,-0.9057,-0.9056,-0.9055,-0.9065,-0.9066,-0.9068,-0.9096,0,0,-0.9072,-0.9072,0,0,0,0,0,0,0,0,-0.9046,-0.9048,-0.9061,-0.9061,-0.906,-0.9066,-0.907,-0.9085,-0.9058,-0.9059,-0.9056,-0.9054,-0.9067,-0.9068,-0.9072,-0.9097,-0.9097,-0.9072,-0.9073,-0.9073,-0.9074,0,0,0,0,0,0,0,-0.9045,-0.9048,-0.9073,-0.9062,-0.9061,-0.9056,-0.9056,-0.9072,-0.9068,-0.9058,-0.9057,-0.9058,-0.9066,-0.9071,-0.9072,-0.9097,-0.9072,-0.9073,-0.9074,-0.9075,-0.9145,-0.9146,0,0,0,0,0,0,-0.9045,-0.9047,-0.9073,-0.9073,-0.905,-0.9057,-0.9058,-0.9065,-0.9068,-0.9067,-0.9059,-0.9057,-0.9069,-0.907,-0.9072,-0.9105,-0.9073,-0.9075,-0.9075,-0.9144,-0.9145,-0.9146,0,0,0,0,0,0,-0.9045,-0.9048,-0.9072,-0.906,-0.9062,-0.9059,-0.9067,-0.9066,-0.907,-0.9068,-0.9068,-0.9064,-0.9068,-0.907,-0.909,-0.9105,-0.9075,-0.9076,-0.9143,-0.9144,-0.9146,-0.9172,0,0,0,0,0,0,-0.9044,-0.9048,-0.9059,-0.906,-0.9063,-0.909,-0.9068,-0.9067,-0.9072,-0.907,-0.9073,-0.9073,-0.9067,-0.9088,-0.9091,-0.9106,-0.9078,-0.9141,-0.9143,-0.9145,-0.9169,-0.9174,-0.9178,0,0,0,0,0,-0.9043,-0.9066,-0.9059,-0.9063,-0.9077,-0.9091,-0.9093,-0.9086,-0.9074,-0.9084,-0.9083,-0.9073,-0.9103,-0.909,-0.9094,-0.911,-0.914,-0.9143,-0.9145,-0.9168,-0.9173,-0.9178,0,0,0,0,0,0,-0.9068,-0.9066,-0.9059,-0.9083,-0.9087,-0.9088,-0.9101,-0.9092,-0.91,-0.9098,-0.9089,-0.909,-0.9111,-0.9112,-0.9098,-0.9137,-0.9119,-0.9123,-0.9135,-0.914,-0.9145,-0.9144,-0.9079,0,0,0,0,0,-0.9076,-0.9087,-0.9086,-0.9108,-0.911,-0.9105,-0.9111,-0.9105,-0.9109,-0.9111,-0.9111,-0.9116,-0.9126,-0.9133,-0.9143,-0.9169,-0.9169,-0.9182,-0.9186,-0.9189,-0.9192,-0.9205,-0.921,-0.9154,-0.9154,-0.9154,0,0,-0.9093,-0.9094,-0.9102,-0.9113,-0.9115,-0.9127,-0.9107,-0.9121,-0.913,-0.9113,-0.9132,-0.9132,-0.9137,-0.9159,-0.917,-0.9161,-0.9207,-0.9192,-0.9195,-0.9196,-0.9208,-0.9214,-0.9218,-0.9156,-0.9155,-0.9155,0,0,-0.9131,-0.9133,-0.9151,-0.9153,-0.9157,-0.9153,-0.9158,-0.9159,-0.9158,-0.9176,-0.9164,-0.9174,-0.9193,-0.9196,-0.92,-0.9238,-0.9228,-0.9241,-0.9263,-0.9276,-0.928,-0.9284,-0.9297,-0.9302,-0.9244,-0.9244,-0.9244,0,-0.9152,-0.917,-0.9161,-0.9176,-0.9181,-0.9165,-0.9183,-0.9186,-0.9193,-0.9197,-0.9187,-0.9208,-0.921,-0.9233,-0.9242,-0.9246,-0.9251,-0.9241,-0.928,-0.9284,-0.9287,-0.93,-0.9305,-0.9245,-0.9245,-0.9245,-0.9245,0,-0.9196,-0.9208,-0.9222,-0.9228,-0.9235,-0.9251,-0.9244,-0.9252,-0.9245,-0.9242,-0.9261,-0.9262,-0.9271,-0.9276,-0.927,-0.9298,-0.9293,-0.9282,-0.9264,-0.9295,-0.9306,-0.9311,-0.9248,-0.9247,-0.9247,-0.9246,0,0,-0.9251,-0.9251,-0.9256,-0.9258,-0.926,-0.927,-0.9285,-0.9293,-0.9299,-0.9304,-0.9316,-0.9331,-0.9321,-0.9325,-0.9319,-0.9331,-0.9359,-0.9318,-0.9318,-0.9326,-0.939,-0.9398,-0.9404,-0.9353,-0.9354,-0.9354,-0.9389,0,-0.9288,-0.9314,-0.9306,-0.9332,-0.9342,-0.9327,-0.934,-0.9343,-0.9341,-0.9349,-0.9347,-0.9357,-0.9343,-0.9345,-0.9356,-0.9354,-0.9372,-0.9351,-0.9364,-0.9365,-0.9364,-0.941,-0.9419,-0.9452,-0.9394,-0.9395,-0.9395,0,-0.9336,-0.9341,-0.9368,-0.9367,-0.9371,-0.9383,-0.9389,-0.9398,-0.94,-0.9398,-0.9402,-0.9393,-0.9408,-0.939,-0.9409,-0.9395,-0.94,-0.94,-0.9401,-0.9402,-0.9382,-0.9413,-0.9463,-0.9468,-0.9402,-0.9402,-0.9401,0,-0.9373,-0.9387,-0.9405,-0.9407,-0.9406,-0.9415,-0.9415,-0.9416,-0.9421,-0.9427,-0.943,-0.9437,-0.9441,-0.9447,-0.944,-0.9428,-0.9461,-0.9442,-0.9459,-0.9459,-0.9467,-0.9467,-0.9519,-0.947,-0.947,-0.947,-0.947,0,-0.9415,-0.9432,-0.9421,-0.9432,-0.945,-0.944,-0.9459,-0.9457,-0.9458,-0.9468,-0.9455,-0.9465,-0.9456,-0.9465,-0.9459,-0.9476,-0.9478,-0.9476,-0.9475,-0.9478,-0.9478,-0.9481,-0.9478,-0.9471,-0.9471,-0.947,-0.947,0,-0.9461,-0.9454,-0.9472,-0.9469,-0.9469,-0.9482,-0.948,-0.949,-0.9486,-0.9499,-0.9501,-0.9495,-0.9505,-0.9498,-0.9508,-0.9505,-0.9527,-0.9522,-0.9526,-0.9525,-0.9541,-0.954,-0.9598,-0.9605,-0.9551,-0.9552,-0.9552,0,-0.9488,-0.9501,-0.9499,-0.9504,-0.9505,-0.9515,-0.9519,-0.9509,-0.9515,-0.9517,-0.9527,-0.9535,-0.9542,-0.9558,-0.9554,-0.9562,-0.9557,-0.9577,-0.9558,-0.956,-0.9557,-0.9557,-0.9558,-0.9581,-0.9581,-0.9582,-0.9582,0,-0.9538,-0.9534,-0.9541,-0.9546,-0.9552,-0.9556,-0.9559,-0.9565,-0.9555,-0.9561,-0.9571,-0.9575,-0.9585,-0.9593,-0.9599,-0.9599,-0.9589,-0.9588,-0.9592,-0.9595,-0.9597,-0.9596,-0.9536,-0.9587,-0.9586,-0.9586,-0.9586,-0.9586,-0.9576,-0.9585,-0.9585,-0.9593,-0.9594,-0.9597,-0.9606,-0.9602,-0.961,-0.9616,-0.961,-0.9621,-0.9622,-0.9628,-0.963,-0.9638,-0.963,-0.9636,-0.9638,-0.964,-0.9642,-0.9595,-0.9639,-0.9639,-0.9639,-0.9639,-0.9639,0,-0.9625,-0.9623,-0.9631,-0.9635,-0.9641,-0.963,-0.9632,-0.9638,-0.9648,-0.9649,-0.9655,-0.9665,-0.9673,-0.967,-0.9676,-0.9684,-0.9679,-0.9686,-0.9686,-0.9686,-0.9649,-0.9644,-0.9689,-0.9689,-0.9689,-0.9689,-0.9689,-0.9689,-0.9651,-0.9667,-0.9662,-0.9678,-0.9677,-0.9687,-0.9689,-0.9692,-0.9693,-0.9704,-0.971,-0.9708,-0.9707,-0.9713,-0.972,-0.9719,-0.9722,-0.973,-0.9727,-0.9693,-0.9688,-0.9684,-0.9679,-0.9731,-0.9731,-0.9763,-0.9764,-0.9764]}]]